Theta_e
341 340 340 342 343 346 353 355 358 364 359 357 353 353 351 355 356 357 368 373 365 372 365 362 358 354 361 352 349 351 357 363 359 351 336 338 344 345 341 351 352 360 361
342 341 342 343 344 346 353 356 357 363 360 357 356 356 356 355 355 359 366 368 370 368 360 362 361 353 355 339 341 354 362 357 358 357 339 336 338 339 338 340 348 358 359
341 342 343 343 344 347 351 355 358 361 358 360 359 362 364 361 360 359 362 362 366 366 370 373 357 368 355 339 352 350 363 357 353 356 352 336 332 331 340 338 344 357 357
343 345 343 343 344 347 353 357 359 362 361 362 363 360 353 352 354 363 358 360 365 367 366 374 376 378 372 358 350 351 367 364 355 357 355 353 342 334 330 343 335 341 357
340 342 342 344 345 346 351 356 359 362 362 362 363 363 360 357 356 356 361 362 372 365 368 370 377 376 368 355 342 339 359 364 362 359 351 350 355 344 348 338 341 346 355
339 343 346 346 345 347 349 353 359 360 363 364 362 363 367 357 357 358 360 359 360 358 363 367 374 375 371 349 341 336 350 363 367 364 362 358 352 355 352 346 344 347 350
332 341 344 344 345 345 347 349 357 359 362 363 365 362 363 369 360 365 358 360 354 357 361 367 373 371 375 361 350 342 362 368 365 368 364 361 354 358 354 353 350 351 352
333 334 341 346 344 345 346 347 354 358 360 362 363 367 364 362 365 363 359 353 351 357 360 365 372 375 354 355 357 369 366 369 369 365 367 364 361 361 347 347 348 346 349
336 337 338 343 345 345 346 345 349 357 360 361 363 363 367 364 360 361 364 357 363 363 364 359 347 353 372 370 372 366 365 368 371 368 367 366 363 362 340 334 337 349 340
336 338 340 344 345 346 346 346 346 353 359 360 361 363 364 367 365 365 366 359 357 371 362 357 351 347 347 370 361 368 371 365 369 367 363 368 363 360 342 337 341 359 351
336 338 340 341 343 344 346 346 346 348 355 357 361 360 364 367 367 366 366 365 362 369 372 358 348 339 342 364 365 366 367 366 369 365 362 356 356 353 354 356 355 355 357
337 341 342 342 342 342 344 346 348 346 350 358 366 356 364 367 366 364 365 367 370 374 376 374 367 364 370 368 370 364 364 366 365 365 364 353 357 353 360 356 355 355 352
343 344 344 347 346 346 352 352 353 352 356 361 356 353 353 361 361 364 369 372 370 371 370 373 369 362 363 362 364 365 361 359 361 361 359 358 357 357 356 356 353 350 350
344 345 349 353 355 357 355 354 350 349 349 349 349 346 345 345 350 348 349 352 355 355 355 357 360 363 361 355 356 359 358 358 357 358 357 356 356 354 355 353 349 349 349
344 347 349 351 354 356 356 353 349 350 347 345 340 339 339 340 342 341 341 342 341 342 344 345 352 348 348 337 343 343 344 345 346 349 350 350 344 341 341 340 344 341 338
344 347 350 351 352 353 350 351 348 350 347 344 339 338 336 336 338 339 339 340 341 341 342 343 342 346 339 333 332 333 338 340 340 344 344 345 341 341 338 337 338 336 337
345 345 345 343 347 351 355 350 350 350 343 341 341 338 336 334 336 340 340 339 341 342 344 344 343 341 332 326 325 328 332 335 338 336 340 339 338 339 342 337 337 335 333
342 340 339 342 346 348 351 351 348 345 343 342 341 339 338 337 339 339 339 341 341 341 343 343 342 343 336 322 321 323 330 336 332 333 333 338 336 334 335 334 334 334 334
342 341 340 343 345 345 347 344 342 342 342 342 343 342 341 341 340 340 340 342 341 340 339 341 340 340 336 320 319 322 330 330 330 328 331 333 336 324 321 329 330 329 329
343 341 340 340 341 346 346 343 342 341 338 338 339 342 340 340 337 338 338 337 337 339 337 339 341 330 337 319 318 321 326 327 330 333 330 324 322 318 317 325 325 321 323
346 345 343 339 341 344 346 340 337 334 335 337 340 340 340 339 340 340 341 340 341 340 339 338 338 340 337 324 318 318 327 325 322 322 325 323 317 314 315 315 320 321 323
344 342 341 343 345 343 337 335 334 338 339 338 337 337 338 335 334 337 337 336 338 335 335 335 334 333 338 329 318 318 319 322 325 325 327 324 314 311 310 312 316 315 317
341 337 336 335 336 336 337 337 337 340 340 339 338 337 335 334 334 335 334 331 335 331 333 333 330 333 335 330 318 318 317 318 322 322 318 315 312 310 313 314 314 315 322
332 333 335 332 332 335 337 339 340 341 340 337 336 334 331 334 335 331 333 330 325 320 318 321 324 326 329 328 326 325 325 321 321 317 315 315 314 313 313 314 318 323 327
334 336 334 330 333 331 334 335 336 336 333 332 331 332 328 331 331 334 329 327 328 322 322 323 321 320 322 318 311 311 317 318 314 308 313 314 315 316 319 325 325 323 321
332 331 329 331 332 332 332 333 334 333 332 328 328 320 325 327 326 328 327 314 313 309 307 305 312 319 310 305 305 304 305 303 301 311 313 314 317 319 318 317 316 318 318
Wind_Speed
17 17 16 15 14 14 14 13 9 8 8 8 8 7 7 7 7 7 7 5 3 5 4 5 4 6 9 3 10 3 11 4 3 6 6 6 7 6 15 12 5 8 11
17 18 18 15 16 16 14 13 11 9 8 7 8 7 6 7 7 6 5 8 6 8 6 7 4 9 4 4 2 11 3 4 5 2 6 1 7 3 8 16 13 11 11
20 19 19 17 16 17 17 15 13 12 11 10 7 6 5 6 4 4 4 6 7 7 7 6 4 7 10 5 6 12 7 2 4 9 3 4 6 2 5 10 14 7 5
19 19 20 19 17 17 18 17 15 14 13 12 8 10 7 7 5 3 5 5 9 7 9 7 6 4 3 11 5 11 2 3 4 3 2 6 5 4 4 3 4 8 4
20 21 22 21 19 18 18 18 17 15 14 14 11 7 9 6 6 5 8 7 5 6 9 8 7 5 6 7 10 3 5 5 3 1 2 4 10 11 4 5 8 6 8
18 18 21 21 20 17 17 19 19 16 15 15 15 12 8 10 6 6 4 4 6 8 10 9 6 5 5 5 3 5 5 6 4 5 3 3 3 2 4 4 6 8 9
7 17 18 20 20 20 19 17 20 19 17 15 16 16 14 10 10 7 5 4 7 8 11 9 7 6 6 4 6 9 12 3 3 4 4 6 5 4 4 2 3 1 2
6 6 19 20 21 21 19 18 20 19 19 18 17 14 15 10 9 8 6 6 8 6 9 12 5 5 12 15 23 3 5 7 4 5 5 5 8 2 9 7 4 4 2
2 6 6 17 21 21 20 19 16 20 19 19 15 14 13 14 12 10 7 7 6 1 7 6 8 15 2 11 8 6 8 6 4 4 5 4 7 4 4 9 11 3 2
4 4 3 6 15 21 20 20 20 21 19 17 13 12 13 12 12 9 8 8 8 4 8 8 11 8 3 2 8 5 6 5 3 4 5 2 4 5 4 5 11 3 3
7 6 5 5 8 15 19 19 19 19 19 17 15 13 12 11 11 11 8 8 8 6 7 8 6 6 5 8 5 5 5 1 2 3 3 4 7 8 8 1 3 3 2
7 7 2 5 9 9 13 16 13 10 19 15 9 11 9 10 10 12 9 7 5 5 4 5 7 8 6 4 3 4 6 1 2 3 2 6 4 11 6 5 5 4 5
8 4 4 3 6 3 10 13 15 10 12 12 12 11 9 7 6 11 6 4 5 5 4 1 3 5 5 4 4 5 6 6 4 5 4 4 3 3 4 4 5 5 4
6 6 6 7 10 11 12 12 12 11 13 15 13 12 17 16 6 13 11 12 10 9 9 7 7 5 3 2 0 4 3 3 3 2 3 1 1 1 3 2 4 4 4
5 8 6 4 6 6 8 7 12 10 13 16 19 17 16 14 13 8 8 9 8 9 10 11 10 8 9 8 8 7 7 8 8 7 6 5 4 1 1 2 3 4 4
8 6 8 6 7 4 6 9 10 13 13 14 14 9 11 14 10 5 7 4 3 5 2 8 10 6 5 4 7 6 5 5 7 5 5 4 8 6 2 2 4 4 4
10 11 7 7 1 8 10 11 12 12 13 13 9 8 6 5 2 4 7 4 2 1 5 5 6 3 6 6 7 6 4 4 5 5 5 6 6 6 6 6 4 6 10
8 7 6 9 6 8 8 12 12 10 11 9 9 5 6 6 5 3 5 5 3 4 3 3 3 3 4 6 3 5 4 3 4 4 4 5 6 5 3 4 3 4 6
11 10 9 9 9 7 11 11 11 9 8 9 7 6 5 5 4 5 4 2 3 5 5 4 4 2 5 6 6 7 5 5 3 4 3 5 6 5 5 5 4 5 5
14 13 11 10 9 7 13 11 9 9 9 10 9 7 8 8 6 5 4 4 4 3 3 2 2 2 4 6 5 2 4 6 3 3 4 10 7 6 11 4 4 6 7
17 17 16 11 11 9 8 11 12 11 10 9 9 8 7 7 6 5 4 2 1 2 2 2 3 3 3 6 6 3 3 4 6 5 6 4 7 1 5 7 6 9 7
21 16 14 13 11 10 9 9 11 10 10 9 9 7 6 5 5 3 3 1 1 2 4 4 5 5 5 10 6 5 3 2 3 5 4 6 13 12 10 7 12 14 8
13 16 13 10 7 10 10 12 8 8 8 8 7 7 6 4 4 3 2 4 5 4 3 2 3 2 6 6 11 8 8 8 3 5 8 12 12 13 12 14 15 10 4
15 15 15 12 10 11 11 8 8 6 6 6 6 4 6 4 2 3 3 3 6 8 7 7 6 5 7 6 5 4 3 5 5 8 7 11 14 17 16 13 9 4 3
8 14 13 10 12 8 12 4 8 4 5 4 3 3 7 3 4 2 4 3 4 2 0 3 3 4 4 3 3 1 3 4 4 7 7 9 8 8 7 1 2 4 6
10 12 12 12 11 11 7 7 7 3 3 3 2 4 4 2 4 2 3 3 5 7 5 3 2 3 6 8 5 5 7 8 4 5 7 9 8 6 7 7 8 7 8
Wind_Direction
192 187 191 183 182 169 166 171 186 165 159 163 187 222 211 213 220 236 149 163 226 165 41 316 107 350 7 30 325 178 246 254 262 120 81 275 352 318 351 321 351 166 143
196 184 179 191 186 171 168 168 182 169 174 186 187 214 220 218 217 220 218 185 194 145 176 229 178 198 225 152 103 291 315 304 356 74 92 78 333 189 28 322 313 233 146
184 180 178 188 188 176 173 170 181 176 182 196 202 215 231 242 230 226 198 180 200 228 230 184 200 191 186 145 126 297 251 265 359 311 155 139 229 15 113 264 268 296 155
178 177 178 182 193 183 173 171 181 180 185 209 204 209 214 241 227 235 209 220 190 210 244 224 205 221 272 144 152 244 242 245 212 240 18 56 147 161 296 301 309 294 234
179 186 180 181 192 190 178 177 180 189 191 197 218 209 217 217 247 222 223 197 175 205 230 232 195 183 235 113 184 155 292 282 242 229 217 147 216 186 158 162 245 270 265
181 184 178 178 184 191 186 181 178 188 196 191 203 227 212 220 248 239 214 194 174 214 231 242 176 192 237 96 307 290 257 260 307 314 337 284 267 208 193 220 180 234 187
272 179 179 177 180 190 189 187 179 186 191 205 201 211 225 212 226 240 215 230 230 212 211 212 186 183 202 126 208 232 245 251 251 299 293 296 266 207 215 202 304 349 338
233 223 182 174 180 186 189 193 177 186 191 195 212 203 214 226 214 226 217 213 256 282 202 186 202 173 129 133 258 251 240 229 212 248 272 288 300 339 33 341 23 349 351
1 306 289 181 176 184 188 191 189 185 191 197 200 210 203 216 226 216 210 229 262 180 94 86 100 294 270 189 193 202 228 230 247 212 246 254 286 10 116 70 282 125 271
186 188 252 285 186 178 186 192 198 182 187 193 197 205 214 207 221 220 207 209 241 206 155 169 187 243 318 258 221 238 237 191 231 236 243 249 291 319 120 216 259 221 150
183 170 204 210 250 200 189 194 199 181 179 185 188 199 204 209 211 245 208 204 216 251 158 152 180 238 257 259 274 289 317 209 232 266 308 350 25 330 314 326 296 317 44
131 125 257 273 189 251 215 192 195 192 170 182 171 174 175 194 220 232 203 206 232 238 226 175 179 211 239 286 288 281 307 328 311 288 65 107 103 277 310 316 302 19 23
110 140 153 289 14 191 43 82 71 77 76 77 70 45 349 130 223 234 248 207 217 266 270 256 272 257 262 280 313 11 341 314 321 23 63 62 99 255 295 313 340 349 346
134 162 108 75 56 54 67 73 83 69 69 70 62 54 48 22 281 11 19 24 24 28 11 15 8 13 5 110 336 68 7 331 298 345 336 19 47 40 274 330 2 317 311
198 116 127 106 95 83 79 76 81 82 84 91 90 92 100 69 351 47 44 30 40 49 41 19 8 6 53 34 26 10 6 353 348 352 352 27 21 185 305 333 344 351 342
149 100 96 73 38 48 117 102 105 95 100 94 92 97 128 146 184 124 153 146 92 87 59 61 326 331 73 10 31 15 327 334 323 324 323 339 299 19 140 225 24 336 326
119 139 116 77 76 79 84 101 105 104 95 97 88 99 102 60 255 148 102 85 72 105 160 187 194 30 84 55 37 9 323 330 312 320 343 333 359 20 56 65 328 293 273
122 119 141 142 132 116 115 114 110 105 114 109 105 114 125 150 174 129 133 173 171 216 55 52 28 6 106 106 49 337 291 281 307 321 332 316 320 349 44 63 300 309 322
154 166 148 135 118 139 124 116 115 129 131 109 112 136 151 124 116 118 108 118 70 51 43 3 358 294 122 124 57 356 310 277 269 272 278 260 260 109 35 45 329 309 298
155 138 136 127 128 143 134 126 119 112 100 89 84 75 79 85 83 80 69 40 43 22 19 274 285 27 95 121 91 18 332 325 303 281 266 70 110 92 44 9 316 296 285
151 143 138 143 147 148 140 112 106 103 111 107 100 100 95 90 83 81 77 78 39 38 200 294 274 234 186 141 175 75 342 357 342 323 317 119 63 138 245 240 254 250 258
139 139 134 141 156 126 112 98 100 107 110 118 117 105 74 78 92 85 93 52 235 270 262 246 261 242 177 174 165 159 235 306 292 308 352 0 339 327 296 253 248 262 272
118 116 108 102 101 91 98 100 107 116 119 111 109 108 98 101 110 107 131 235 210 232 222 220 257 47 188 121 144 188 220 238 247 17 345 323 309 303 303 289 285 289 264
113 113 115 102 104 101 99 101 106 114 122 111 102 109 111 130 108 278 159 5 37 23 4 355 3 10 68 65 34 17 341 6 352 10 325 303 287 273 266 276 287 286 311
125 121 115 118 99 79 101 107 99 115 79 94 125 198 145 141 170 142 95 96 101 131 251 5 353 349 25 79 97 36 341 338 355 336 309 298 286 280 269 210 331 351 339
117 98 100 111 117 125 97 93 86 95 154 184 179 52 344 58 85 12 123 103 132 174 198 193 266 103 116 155 184 246 273 282 49 297 289 281 287 331 5 360 5 357 4